Location: *
(48.7358°N, 0.3111°E)
Time: 10:16:12
(UTC+00:00)

Cosmos 1709 Rocket - Pass Details

Date: 22 October 2019
Orbit: 949 x 1001 km, 82.9° (Epoch: 11 November)

Event Time Altitude Azimuth Distance (km) Brightness Sun altitude
Exits shadow 04:00:40 42° 307° (NW) 1,380 4.5 -25.0°
Drops below altitude 10° 04:05:57 10° 359° (N) 2,780 6.5 -24.2°
Sets 04:08:39 0° 6° (N) 3,736 7.3 -23.7°
